ORBCOMM FM 41

Satellite information

Favourite Embed

Satellite Type and Status

PAYLOADIN ORBIT

Key statistics

Satellite ORBCOMM FM 41 at a glance.

Uptime

6387

Days in orbit

Revolutions

≈ 14.8

Per day

Orbit

LEO

Low Earth Orbit

Inclination

48.4

Latest

Satellite identification and parameters

Extended collection of information and parameters for ORBCOMM FM 41.

Object identification

Identified? True

Debris? False

Object name: ORBCOMM FM 41

International designator: 2008-031B

Object number (NORAD): 33061

Object ID (CCSDS): 33061

Country: ORBITAL TELECOMMUNICATIONS SATELLITE (GLOBALSTAR) (ORB)

Current information (Y/N): Y

RCS size: LARGE

Orbital parameters

Period: 97.178 minutes

Inclination: 48.4413 deg

SMA: 7001.733 km

Apoapsis: 626.088 km

Periapsis: 621.108 km

RAAN: 194.1831 deg

Eccentricy: 0.00035564

Argument of periapsis: 75.9169 deg

Mean anomaly: 94.6142 deg

Mean motion: 14.81816442 rev/day

Mean motion (dot): 0.00002861 rev/day2

B* drag term: 0.00038513667 1/REarth

Two-line elements (TLE)

Creation date: Dec. 12, 2025, 10:14 a.m.

Reference frame: TEME

Reference center: EARTH

Epoch: Dec. 12, 2025, 7:51 a.m. UTC

TLE line 0: 0 ORBCOMM FM 41

TLE line 1: 1 33061U 08031B 25346.32761245 .00002861 00000-0 38514-3 0 9996

TLE line 2: 2 33061 48.4413 194.1831 0003556 75.9169 94.6142 14.81816442940640

Live tracking on map

Real-time ground track for satellite ORBCOMM FM 41.

In-orbit conjunctions

A list of the most updated potential collisions computed for object ORBCOMM FM 41.

Target Orbit TCA Probability of collision Miss distance Type
SL-16 DEB LEO 2025-11-28 09:35:33 0.0001236827 979.0 (m) DEBRIS
COSMOS 886 DEB LEO 2024-12-12 04:16:45 0.0005852937 586.0 (m) DEBRIS
COSMOS 2251 DEB LEO 2024-10-06 08:31:20 0.0001491528 305.0 (m) DEBRIS

Associated space launch

LEO communications satellites

ORBCOMM FM 41 was lifted into orbit during the mission ‘Kosmos-3M | Orbcomm FM 37 to 41 & CDS 3’, on board a Kosmos-3M space rocket.

The launch took place on June 19, 2008, 6:36 a.m. from 107.

For more information about the launch, click the button.

Launch to space Kosmos-3M | Orbcomm FM 37 to 41 & CDS 3
Kosmos-3M | Orbcomm FM 37 to 41 & CDS 3

Agency: N/A

Status: Launch Successful

Launch date: June 19, 2008, 6:36 a.m. UTC

Rocket: Kosmos-3M

Launch pad: 107

Location: Kapustin Yar, Russian Federation

...

Latest news about this satellite

There are no fresh news available about this satellite. Check back as we update our databases every day.


Newsletter sign-up

Weekly statistics, charts and insights to help you stay on top of the space industry.